Weather History for Carlsbad, NM

Change the Weather History Date:

Thursday, August 8, 2013

  Actual Average Record
Temperature  
Mean Temperature 82 °F -  
Max Temperature 97 °F 94 °F 106 °F (2011)
Min Temperature 66 °F 66 °F 58 °F (1989)
Cooling Degree Days 16    
Growing Degree Days 32 (Base 50)    
Moisture  
Dew Point 52 °F    
Average Humidity 38    
Maximum Humidity 78    
Minimum Humidity 19    
Precipitation  
Precipitation 0.00 in - - ()
Sea Level Pressure  
Sea Level Pressure 29.75 in    
Wind  
Wind Speed 5 mph (NNE)    
Max Wind Speed 13 mph    
Max Gust Speed 16 mph    
Visibility 10 miles    
Events      
Averages and records for this station are not official NWS values.
T = Trace of Precipitation, MM = Missing Value Source: NWS Daily Summary

Daily Weather History Graph

Daily Weather History Graph

Search for Another Location

Airport:

Trip Planner

Search our weather history database for the weather conditions in past years. The results will help you decide how hot, cold, wet, or windy it might be!

Date:

Astronomy

Aug. 08, 2013 Rise Set
Actual Time 6:16 AM MDT 7:48 PM MDT
Civil Twilight 5:50 AM MDT 8:14 PM MDT
Nautical Twilight 5:18 AM MDT 8:45 PM MDT
Astronomical Twilight 4:45 AM MDT 9:18 PM MDT
Moon 7:56 AM MDT (8/8) 8:39 PM MDT (8/8)
Length of Visible Light 14h 24m
Length of Day
13h 31m
Waxing Crescent, 3% of the Moon is Illuminated
Aug 8
Waxing Crescent
Aug 14
First Quarter
Aug 20
Full
Aug 28
Last Quarter
Sep 5
New

Hourly Weather History & Observations

Time (MDT) Temp. Heat Index Dew Point Humidity Pressure Visibility Wind Dir Wind Speed Gust Speed Precip Events Conditions
12:53 AM 75.0 °F - 53.1 °F 46% 29.76 in 10.0 mi WNW 5.8 mph - N/A   Clear
1:53 AM 73.0 °F - 54.0 °F 51% 29.75 in 10.0 mi SW 5.8 mph - N/A   Clear
2:53 AM 73.9 °F - 53.1 °F 48% 29.74 in 10.0 mi NW 4.6 mph - N/A   Clear
3:53 AM 73.9 °F - 53.1 °F 48% 29.75 in 10.0 mi Calm Calm - N/A   Clear
4:53 AM 69.1 °F - 57.9 °F 68% 29.75 in 10.0 mi Calm Calm - N/A   Clear
5:53 AM 66.0 °F - 59.0 °F 78% 29.78 in 10.0 mi ENE 5.8 mph - N/A   Clear
6:53 AM 66.9 °F - 57.9 °F 73% 29.79 in 10.0 mi Calm Calm - N/A   Clear
7:53 AM 73.9 °F - 55.0 °F 52% 29.80 in 10.0 mi Calm Calm - N/A   Clear
8:53 AM 80.1 °F 80.1 °F 55.0 °F 42% 29.81 in 10.0 mi North 6.9 mph - N/A   Clear
9:53 AM 84.9 °F 83.2 °F 53.1 °F 33% 29.81 in 10.0 mi NNE 12.7 mph - N/A   Clear
10:53 AM 88.0 °F - 52.0 °F 29% 29.82 in 10.0 mi North 9.2 mph - N/A   Clear
11:53 AM 91.0 °F - 50.0 °F 24% 29.80 in 10.0 mi North 10.4 mph 16.1 mph N/A   Clear
12:53 PM 91.9 °F - 48.9 °F 23% 29.78 in 10.0 mi North 4.6 mph - N/A   Clear
1:53 PM 93.0 °F - 48.9 °F 22% 29.77 in 10.0 mi Variable 6.9 mph - N/A   Clear
2:53 PM 96.1 °F - 50.0 °F 21% 29.74 in 10.0 mi Variable 3.5 mph - N/A   Clear
3:53 PM 97.0 °F - 48.9 °F 19% 29.71 in 10.0 mi NNE 6.9 mph - N/A   Clear
4:53 PM 96.1 °F - 48.9 °F 20% 29.70 in 10.0 mi East 8.1 mph - N/A   Clear
5:53 PM 95.0 °F - 48.0 °F 20% 29.69 in 10.0 mi East 10.4 mph - N/A   Clear
6:53 PM 93.9 °F - 48.0 °F 21% 29.68 in 10.0 mi East 8.1 mph - N/A   Clear
7:53 PM 88.0 °F - 51.1 °F 28% 29.70 in 10.0 mi East 5.8 mph - N/A   Clear
8:53 PM 84.9 °F - 50.0 °F 30% 29.72 in 10.0 mi East 4.6 mph - N/A   Clear
9:53 PM 82.0 °F - 50.0 °F 33% 29.74 in 10.0 mi SW 3.5 mph - N/A   Scattered Clouds
10:53 PM 80.1 °F - 51.1 °F 36% 29.75 in 10.0 mi SW 4.6 mph - N/A   Clear
11:53 PM 79.0 °F - 50.0 °F 36% 29.76 in 10.0 mi WNW 6.9 mph - N/A   Clear